Flag for Switzerland Weather past 2 weeks in Monthey, Valais, Switzerland

Now
34 °F

Clear.


Feels Like: 34 °F
Forecast: 32 / 51 °F
Wind: 2 mph from South

Location: Aigle

Current Time: Dec 21, 2014 at 8:25:06 AM

Latest Report: Dec 21, 2014 at 7:00 AM


Visibility: 19 mi

Pressure: 30.59 "Hg

Humidity: 91%

Dew point: 32 °F

Location of MontheyLocation

Historic Weather in Monthey — Graph

°F

Monthey temperature yesterday

Maximum temperature yesterday: 51 °F (at 1:00 PM)
Minimum temperature yesterday: 44 °F (at 8:00 AM)
Average temperature yesterday: 47 °F

Past Weeks' High & Low Weather Summary

 TemperatureHumidityPressure
High56 °F (Dec 13, 1:00 PM)99% (Dec 19, 12:00 AM)30.59 "Hg (Dec 19, 12:00 AM)
Low29 °F (Dec 10, 5:00 AM)39% (Dec 13, 1:00 PM)29.90 "Hg (Dec 13, 2:00 AM)
Average42 °F78%30.18 "Hg
* Reported Dec 6 7:00 AM — Dec 21 7:00 AM, Monthey, Weather by CustomWeather, © 2014

Note: Actual official high and low records may vary slightly from our data, if they occured in-between our weather recording intervals... More about our weather records

Advertising

Monthey weather history for previous 24 hours

 ConditionsComfort  
Time TempWeatherWind HumidityBarometerVisibility
7:00 AM
Dec 21
34 °FClear.2 mph91%30.59 "Hg19 mi
6:00 AM36 °FChilly.1 mph88%30.58 "HgN/A
5:00 AM35 °FChilly.3 mph91%30.58 "HgN/A
4:00 AM37 °FPassing clouds.1 mph89%30.57 "Hg16 mi
3:00 AM42 °FQuite cool.3 mph72%30.56 "HgN/A
2:00 AM43 °FQuite cool.2 mph69%30.55 "HgN/A
1:00 AM44 °FQuite cool.2 mph63%30.55 "HgN/A
12:00 AM44 °FQuite cool.6 mph58%30.55 "HgN/A
11:00 PM
Dec 20
44 °FQuite cool.6 mph59%30.54 "HgN/A
9:00 PM46 °FCool.12 mph62%30.49 "HgN/A
8:00 PM46 °FCool.9 mph63%30.46 "HgN/A
7:00 PM48 °FPassing clouds.12 mph62%30.44 "Hg22 mi
6:00 PM48 °FCool.13 mph63%30.40 "HgN/A
5:00 PM48 °FCool.2 mph83%30.38 "HgN/A
4:00 PM49 °FPassing clouds.2 mph86%30.37 "Hg25 mi
3:00 PM49 °FCool.7 mph90%30.37 "HgN/A
2:00 PM51 °FCool.1 mph87%30.35 "HgN/A
1:00 PM51 °FLight rain. Overcast.3 mph90%30.39 "Hg6 mi
12:00 PM50 °FCool.3 mph92%30.40 "HgN/A
11:00 AM48 °FCool.1 mph95%30.41 "HgN/A
10:00 AM46 °FPartly sunny.2 mph97%30.41 "Hg22 mi
9:00 AM44 °FQuite cool.2 mph99%30.41 "HgN/A
8:00 AM44 °FQuite cool.1 mph99%30.40 "HgN/A
Weather by CustomWeather, © 2014

See weather overviewHow to use our weather pages